Year,Month,Day,Hour,Minute,Value (Times are PST for temperature in C)
2020,07,23,00,00,14.60
2020,07,23,00,01,14.60
2020,07,23,00,02,14.60
2020,07,23,00,03,14.60
2020,07,23,00,04,14.60
2020,07,23,00,05,14.60
2020,07,23,00,06,14.70
2020,07,23,00,07,14.70
2020,07,23,00,08,14.70
2020,07,23,00,09,14.60
2020,07,23,00,10,14.60
2020,07,23,00,11,14.70
2020,07,23,00,12,14.70
2020,07,23,00,13,14.70
2020,07,23,00,14,14.60
2020,07,23,00,15,14.70
2020,07,23,00,16,14.60
2020,07,23,00,17,14.70
2020,07,23,00,18,14.70
2020,07,23,00,19,14.70
2020,07,23,00,20,14.70
2020,07,23,00,21,14.70
2020,07,23,00,22,14.70
2020,07,23,00,23,14.70
2020,07,23,00,24,14.70
2020,07,23,00,25,14.70
2020,07,23,00,26,14.70
2020,07,23,00,27,14.70
2020,07,23,00,28,14.70
2020,07,23,00,29,14.70
2020,07,23,00,30,14.70
2020,07,23,00,31,14.70
2020,07,23,00,32,14.70
2020,07,23,00,33,14.80
2020,07,23,00,34,14.80
2020,07,23,00,35,14.80
2020,07,23,00,36,14.80
2020,07,23,00,37,14.80
2020,07,23,00,38,14.80
2020,07,23,00,39,14.80
2020,07,23,00,40,14.80
2020,07,23,00,41,14.80
2020,07,23,00,42,14.80
2020,07,23,00,43,14.80
2020,07,23,00,44,14.80
2020,07,23,00,45,14.80
2020,07,23,00,46,14.80
2020,07,23,00,47,14.80
2020,07,23,00,48,14.80
2020,07,23,00,49,14.80
2020,07,23,00,50,14.90
2020,07,23,00,51,14.90
2020,07,23,00,52,14.90
2020,07,23,00,53,14.90
2020,07,23,00,54,14.90
2020,07,23,00,55,14.90
2020,07,23,00,56,15.00
2020,07,23,00,57,15.00
2020,07,23,00,58,15.00
2020,07,23,00,59,15.00
2020,07,23,01,00,15.00
2020,07,23,01,01,15.00
2020,07,23,01,02,15.10
2020,07,23,01,03,15.10
2020,07,23,01,04,15.10
2020,07,23,01,05,15.10
2020,07,23,01,06,15.10
2020,07,23,01,07,15.10
2020,07,23,01,08,15.10
2020,07,23,01,09,15.10
2020,07,23,01,10,15.10
2020,07,23,01,11,15.10
2020,07,23,01,12,15.10
2020,07,23,01,13,15.10
2020,07,23,01,14,15.10
2020,07,23,01,15,15.10
2020,07,23,01,16,15.10
2020,07,23,01,17,15.10
2020,07,23,01,18,15.10
2020,07,23,01,19,15.00
2020,07,23,01,20,15.00
2020,07,23,01,21,15.00
2020,07,23,01,22,15.00
2020,07,23,01,23,15.00
2020,07,23,01,24,15.00
2020,07,23,01,25,15.00
2020,07,23,01,26,15.00
2020,07,23,01,27,15.00
2020,07,23,01,28,15.00
2020,07,23,01,29,15.00
2020,07,23,01,30,14.90
2020,07,23,01,31,14.90
2020,07,23,01,32,14.90
2020,07,23,01,33,14.90
2020,07,23,01,34,14.90
2020,07,23,01,35,14.90
2020,07,23,01,36,14.90
2020,07,23,01,37,14.90
2020,07,23,01,38,14.90
2020,07,23,01,39,14.90
2020,07,23,01,40,14.90
2020,07,23,01,41,14.90
2020,07,23,01,42,14.80
2020,07,23,01,43,14.80
2020,07,23,01,44,14.80
2020,07,23,01,45,14.80
2020,07,23,01,46,14.80
2020,07,23,01,47,14.80
2020,07,23,01,48,14.80
2020,07,23,01,49,14.80
2020,07,23,01,50,14.80
2020,07,23,01,51,14.80
2020,07,23,01,52,14.80
2020,07,23,01,53,14.80
2020,07,23,01,54,14.80
2020,07,23,01,55,14.70
2020,07,23,01,56,14.70
2020,07,23,01,57,14.70
2020,07,23,01,58,14.70
2020,07,23,01,59,14.70
2020,07,23,02,00,14.70
2020,07,23,02,01,14.70
2020,07,23,02,02,14.70
2020,07,23,02,03,14.60
2020,07,23,02,04,14.60
2020,07,23,02,05,14.60
2020,07,23,02,06,14.60
2020,07,23,02,07,14.60
2020,07,23,02,08,14.60
2020,07,23,02,09,14.60
2020,07,23,02,10,14.60
2020,07,23,02,11,14.50
2020,07,23,02,12,14.50
2020,07,23,02,13,14.50
2020,07,23,02,14,14.50
2020,07,23,02,15,14.50
2020,07,23,02,16,14.40
2020,07,23,02,17,14.40
2020,07,23,02,18,14.40
2020,07,23,02,19,14.40
2020,07,23,02,20,14.40
2020,07,23,02,21,14.40
2020,07,23,02,22,14.30
2020,07,23,02,23,14.30
2020,07,23,02,24,14.30
2020,07,23,02,25,14.30
2020,07,23,02,26,14.30
2020,07,23,02,27,14.30
2020,07,23,02,28,14.30
2020,07,23,02,29,14.30
2020,07,23,02,30,14.30
2020,07,23,02,31,14.30
2020,07,23,02,32,14.30
2020,07,23,02,33,14.30
2020,07,23,02,34,14.30
2020,07,23,02,35,14.30
2020,07,23,02,36,14.30
2020,07,23,02,37,14.30
2020,07,23,02,38,14.30
2020,07,23,02,39,14.30
2020,07,23,02,40,14.30
2020,07,23,02,41,14.40
2020,07,23,02,42,14.40
2020,07,23,02,43,14.40
2020,07,23,02,44,14.40
2020,07,23,02,45,14.40
2020,07,23,02,46,14.40
2020,07,23,02,47,14.40
2020,07,23,02,48,14.40
2020,07,23,02,49,14.40
2020,07,23,02,50,14.40
2020,07,23,02,51,14.40
2020,07,23,02,52,14.40
2020,07,23,02,53,14.40
2020,07,23,02,54,14.40
2020,07,23,02,55,14.40
2020,07,23,02,56,14.40
2020,07,23,02,57,14.40
2020,07,23,02,58,14.40
2020,07,23,02,59,14.40
2020,07,23,03,00,14.40
2020,07,23,03,01,14.40
2020,07,23,03,02,14.40
2020,07,23,03,03,14.40
2020,07,23,03,04,14.40
2020,07,23,03,05,14.40
2020,07,23,03,06,14.40
2020,07,23,03,07,14.40
2020,07,23,03,08,14.40
2020,07,23,03,09,14.40
2020,07,23,03,10,14.40
2020,07,23,03,11,14.50
2020,07,23,03,12,14.50
2020,07,23,03,13,14.50
2020,07,23,03,14,14.50
2020,07,23,03,15,14.50
2020,07,23,03,16,14.50
2020,07,23,03,17,14.50
2020,07,23,03,18,14.50
2020,07,23,03,19,14.50
2020,07,23,03,20,14.50
2020,07,23,03,21,14.50
2020,07,23,03,22,14.50
2020,07,23,03,23,14.50
2020,07,23,03,24,14.50
2020,07,23,03,25,14.50
2020,07,23,03,26,14.50
2020,07,23,03,27,14.50
2020,07,23,03,28,14.50
2020,07,23,03,29,14.50
2020,07,23,03,30,14.50
2020,07,23,03,31,14.50
2020,07,23,03,32,14.50
2020,07,23,03,33,14.50
2020,07,23,03,34,14.50
2020,07,23,03,35,14.50
2020,07,23,03,36,14.50
2020,07,23,03,37,14.50
2020,07,23,03,38,14.50
2020,07,23,03,39,14.50
2020,07,23,03,40,14.50
2020,07,23,03,41,14.50
2020,07,23,03,42,14.50
2020,07,23,03,43,14.50
2020,07,23,03,44,14.50
2020,07,23,03,45,14.50
2020,07,23,03,46,14.50
2020,07,23,03,47,14.50
2020,07,23,03,48,14.50
2020,07,23,03,49,14.50
2020,07,23,03,50,14.50
2020,07,23,03,51,14.50
2020,07,23,03,52,14.60
2020,07,23,03,53,14.50
2020,07,23,03,54,14.50
2020,07,23,03,55,14.50
2020,07,23,03,56,14.50
2020,07,23,03,57,14.50
2020,07,23,03,58,14.50
2020,07,23,03,59,14.50
2020,07,23,04,00,14.50
2020,07,23,04,01,14.50
2020,07,23,04,02,14.50
2020,07,23,04,03,14.50
2020,07,23,04,04,14.50
2020,07,23,04,05,14.50
2020,07,23,04,06,14.50
2020,07,23,04,07,14.50
2020,07,23,04,08,14.50
2020,07,23,04,09,14.50
2020,07,23,04,10,14.50
2020,07,23,04,11,14.50
2020,07,23,04,12,14.50
2020,07,23,04,13,14.50
2020,07,23,04,14,14.50
2020,07,23,04,15,14.50
2020,07,23,04,16,14.50
2020,07,23,04,17,14.50
2020,07,23,04,18,14.50
2020,07,23,04,19,14.50
2020,07,23,04,20,14.50
2020,07,23,04,21,14.50
2020,07,23,04,22,14.50
2020,07,23,04,23,14.50
2020,07,23,04,24,14.50
2020,07,23,04,25,14.50
2020,07,23,04,26,14.50
2020,07,23,04,27,14.50
2020,07,23,04,28,14.50
2020,07,23,04,29,14.50
2020,07,23,04,30,14.50
2020,07,23,04,31,14.50
2020,07,23,04,32,14.50
2020,07,23,04,33,14.50
2020,07,23,04,34,14.50
2020,07,23,04,35,14.50
2020,07,23,04,36,14.50
2020,07,23,04,37,14.50
2020,07,23,04,38,14.50
2020,07,23,04,39,14.50
2020,07,23,04,40,14.50
2020,07,23,04,41,14.50
2020,07,23,04,42,14.50
2020,07,23,04,43,14.50
2020,07,23,04,44,14.50
2020,07,23,04,45,14.50
2020,07,23,04,46,14.50
2020,07,23,04,47,14.50
2020,07,23,04,48,14.50
2020,07,23,04,49,14.50
2020,07,23,04,50,14.50
2020,07,23,04,51,14.50
2020,07,23,04,52,14.50
2020,07,23,04,53,14.50
2020,07,23,04,54,14.50
2020,07,23,04,55,14.50
2020,07,23,04,56,14.50
2020,07,23,04,57,14.50
2020,07,23,04,58,14.50
2020,07,23,04,59,14.50
2020,07,23,05,00,14.50
2020,07,23,05,01,14.50
2020,07,23,05,02,14.60
2020,07,23,05,03,14.60
2020,07,23,05,04,14.60
2020,07,23,05,05,14.60
2020,07,23,05,06,14.60
2020,07,23,05,07,14.60
2020,07,23,05,08,14.50
2020,07,23,05,09,14.50
2020,07,23,05,10,14.50
2020,07,23,05,11,14.50
2020,07,23,05,12,14.50
2020,07,23,05,13,14.50
2020,07,23,05,14,14.50
2020,07,23,05,15,14.50
2020,07,23,05,16,14.50
2020,07,23,05,17,14.50
2020,07,23,05,18,14.50
2020,07,23,05,19,14.50
2020,07,23,05,20,14.50
2020,07,23,05,21,14.50
2020,07,23,05,22,14.40
2020,07,23,05,23,14.40
2020,07,23,05,24,14.40
2020,07,23,05,25,14.40
2020,07,23,05,26,14.40
2020,07,23,05,27,14.40
2020,07,23,05,28,14.40
2020,07,23,05,29,14.40
2020,07,23,05,30,14.40
2020,07,23,05,31,14.40
2020,07,23,05,32,14.40
2020,07,23,05,33,14.30
2020,07,23,05,34,14.30
2020,07,23,05,35,14.30
2020,07,23,05,36,14.30
2020,07,23,05,37,14.30
2020,07,23,05,38,14.30
2020,07,23,05,39,14.30
2020,07,23,05,40,14.30
2020,07,23,05,41,14.30
2020,07,23,05,42,14.30
2020,07,23,05,43,14.30
2020,07,23,05,44,14.30
2020,07,23,05,45,14.30
2020,07,23,05,46,14.30
2020,07,23,05,47,14.30
2020,07,23,05,48,14.30
2020,07,23,05,49,14.30
2020,07,23,05,50,14.30
2020,07,23,05,51,14.30
2020,07,23,05,52,14.30
2020,07,23,05,53,14.30
2020,07,23,05,54,14.30
2020,07,23,05,55,14.30
2020,07,23,05,56,14.30
2020,07,23,05,57,14.30
2020,07,23,05,58,14.30
2020,07,23,05,59,14.40
2020,07,23,06,00,14.40
2020,07,23,06,01,14.40
2020,07,23,06,02,14.40
2020,07,23,06,03,14.40
2020,07,23,06,04,14.40
2020,07,23,06,05,14.40
2020,07,23,06,06,14.40
2020,07,23,06,07,14.40
2020,07,23,06,08,14.40
2020,07,23,06,09,14.40
2020,07,23,06,10,14.40
2020,07,23,06,11,14.40
2020,07,23,06,12,14.40
2020,07,23,06,13,14.40
2020,07,23,06,14,14.40
2020,07,23,06,15,14.40
2020,07,23,06,16,14.40
2020,07,23,06,17,14.40
2020,07,23,06,18,14.40
2020,07,23,06,19,14.40
2020,07,23,06,20,14.40
2020,07,23,06,21,14.50
2020,07,23,06,22,14.50
2020,07,23,06,23,14.50
2020,07,23,06,24,14.50
2020,07,23,06,25,14.50
2020,07,23,06,26,14.50
2020,07,23,06,27,14.50
2020,07,23,06,28,14.50
2020,07,23,06,29,14.50
2020,07,23,06,30,14.50
2020,07,23,06,31,14.50
2020,07,23,06,32,14.50
2020,07,23,06,33,14.60
2020,07,23,06,34,14.60
2020,07,23,06,35,14.60
2020,07,23,06,36,14.60
2020,07,23,06,37,14.60
2020,07,23,06,38,14.60
2020,07,23,06,39,14.60
2020,07,23,06,40,14.60
2020,07,23,06,41,14.60
2020,07,23,06,42,14.60
2020,07,23,06,43,14.60
2020,07,23,06,44,14.60
2020,07,23,06,45,14.70
2020,07,23,06,46,14.70
2020,07,23,06,47,14.70
2020,07,23,06,48,14.70
2020,07,23,06,49,14.70
2020,07,23,06,50,14.70
2020,07,23,06,51,14.70
2020,07,23,06,52,14.70
2020,07,23,06,53,14.70
2020,07,23,06,54,14.80
2020,07,23,06,55,14.80
2020,07,23,06,56,14.80
2020,07,23,06,57,14.80
2020,07,23,06,58,14.80
2020,07,23,06,59,14.80
2020,07,23,07,00,14.80
2020,07,23,07,01,14.80
2020,07,23,07,02,14.80
2020,07,23,07,03,14.80
2020,07,23,07,04,14.80
2020,07,23,07,05,14.80
2020,07,23,07,06,14.80
2020,07,23,07,07,14.90
2020,07,23,07,08,14.90
2020,07,23,07,09,14.90
2020,07,23,07,10,14.90
2020,07,23,07,11,14.90
2020,07,23,07,12,14.90
2020,07,23,07,13,14.90
2020,07,23,07,14,14.90
2020,07,23,07,15,14.90
2020,07,23,07,16,14.90
2020,07,23,07,17,14.90
2020,07,23,07,18,14.90
2020,07,23,07,19,15.00
2020,07,23,07,20,15.00
2020,07,23,07,21,15.00
2020,07,23,07,22,15.00
2020,07,23,07,23,15.00
2020,07,23,07,24,15.10
2020,07,23,07,25,15.10
2020,07,23,07,26,15.10
2020,07,23,07,27,15.10
2020,07,23,07,28,15.10
2020,07,23,07,29,15.10
2020,07,23,07,30,15.10
2020,07,23,07,31,15.20
2020,07,23,07,32,15.20
2020,07,23,07,33,15.20
2020,07,23,07,34,15.20
2020,07,23,07,35,15.20
2020,07,23,07,36,15.20
2020,07,23,07,37,15.20
2020,07,23,07,38,15.20
2020,07,23,07,39,15.20
2020,07,23,07,40,15.20
2020,07,23,07,41,15.20
2020,07,23,07,42,15.20
2020,07,23,07,43,15.30
2020,07,23,07,44,15.30
2020,07,23,07,45,15.30
2020,07,23,07,46,15.30
2020,07,23,07,47,15.30
2020,07,23,07,48,15.30
2020,07,23,07,49,15.30
2020,07,23,07,50,15.30
2020,07,23,07,51,15.30
2020,07,23,07,52,15.30
2020,07,23,07,53,15.30
2020,07,23,07,54,15.40
2020,07,23,07,55,15.40
2020,07,23,07,56,15.40
2020,07,23,07,57,15.40
2020,07,23,07,58,15.40
2020,07,23,07,59,15.40
2020,07,23,08,00,15.40
2020,07,23,08,01,15.40
2020,07,23,08,02,15.50
2020,07,23,08,03,15.50
2020,07,23,08,04,15.50
2020,07,23,08,05,15.50
2020,07,23,08,06,15.50
2020,07,23,08,07,15.50
2020,07,23,08,08,15.50
2020,07,23,08,09,15.40
2020,07,23,08,10,15.40
2020,07,23,08,11,15.40
2020,07,23,08,12,15.40
2020,07,23,08,13,15.40
2020,07,23,08,14,15.40
2020,07,23,08,15,15.40
2020,07,23,08,16,15.40
2020,07,23,08,17,15.40
2020,07,23,08,18,15.40
2020,07,23,08,19,15.50
2020,07,23,08,20,15.50
2020,07,23,08,21,15.50
2020,07,23,08,22,15.50
2020,07,23,08,23,15.60
2020,07,23,08,24,15.50
2020,07,23,08,25,15.60
2020,07,23,08,26,15.60
2020,07,23,08,27,15.60
2020,07,23,08,28,15.70
2020,07,23,08,29,15.70
2020,07,23,08,30,15.70
2020,07,23,08,31,15.80
2020,07,23,08,32,15.80
2020,07,23,08,33,15.90
2020,07,23,08,34,15.90
2020,07,23,08,35,16.00
2020,07,23,08,36,16.00
2020,07,23,08,37,16.00
2020,07,23,08,38,16.10
2020,07,23,08,39,16.10
2020,07,23,08,40,16.20
2020,07,23,08,41,16.20
2020,07,23,08,42,16.20
2020,07,23,08,43,16.20
2020,07,23,08,44,16.30
2020,07,23,08,45,16.30
2020,07,23,08,46,16.30
2020,07,23,08,47,16.40
2020,07,23,08,48,16.40
2020,07,23,08,49,16.40
2020,07,23,08,50,16.40
2020,07,23,08,51,16.40
2020,07,23,08,52,16.40
2020,07,23,08,53,16.50
2020,07,23,08,54,16.50
2020,07,23,08,55,16.50
2020,07,23,08,56,16.50
2020,07,23,08,57,16.60
2020,07,23,08,58,16.60
2020,07,23,08,59,16.70
2020,07,23,09,00,16.70
2020,07,23,09,01,16.70
2020,07,23,09,02,16.70
2020,07,23,09,03,16.70
2020,07,23,09,04,16.70
2020,07,23,09,05,16.70
2020,07,23,09,06,16.80
2020,07,23,09,07,16.80
2020,07,23,09,08,16.80
2020,07,23,09,09,16.80
2020,07,23,09,10,16.80
2020,07,23,09,11,16.80
2020,07,23,09,12,16.90
2020,07,23,09,13,16.90
2020,07,23,09,14,16.90
2020,07,23,09,15,17.00
2020,07,23,09,16,17.00
2020,07,23,09,17,17.00
2020,07,23,09,18,17.10
2020,07,23,09,19,17.00
2020,07,23,09,20,17.10
2020,07,23,09,21,17.00
2020,07,23,09,22,17.00
2020,07,23,09,23,16.90
2020,07,23,09,24,16.90
2020,07,23,09,25,16.80
2020,07,23,09,26,16.80
2020,07,23,09,27,16.80
2020,07,23,09,28,16.80
2020,07,23,09,29,16.80
2020,07,23,09,30,16.80
2020,07,23,09,31,16.80
2020,07,23,09,32,16.80
2020,07,23,09,33,16.80
2020,07,23,09,34,16.80
2020,07,23,09,35,16.80
2020,07,23,09,36,16.80
2020,07,23,09,37,16.80
2020,07,23,09,38,16.80
2020,07,23,09,39,16.80
2020,07,23,09,40,16.80
2020,07,23,09,41,16.80
2020,07,23,09,42,16.80
2020,07,23,09,43,16.80
2020,07,23,09,44,16.80
2020,07,23,09,45,16.80
2020,07,23,09,46,16.80
2020,07,23,09,47,16.80
2020,07,23,09,48,16.80
2020,07,23,09,49,16.80
2020,07,23,09,50,16.80
2020,07,23,09,51,16.80
2020,07,23,09,52,16.90
2020,07,23,09,53,16.90
2020,07,23,09,54,16.90
2020,07,23,09,55,17.00
2020,07,23,09,56,17.00
2020,07,23,09,57,17.00
2020,07,23,09,58,17.10
2020,07,23,09,59,17.10
2020,07,23,10,00,17.10
2020,07,23,10,01,17.10
2020,07,23,10,02,17.10
2020,07,23,10,03,17.10
2020,07,23,10,04,17.00
2020,07,23,10,05,17.00
2020,07,23,10,06,17.00
2020,07,23,10,07,17.00
2020,07,23,10,08,16.90
2020,07,23,10,09,16.90
2020,07,23,10,10,16.90
2020,07,23,10,11,16.90
2020,07,23,10,12,16.90
2020,07,23,10,13,16.90
2020,07,23,10,14,16.90
2020,07,23,10,15,16.90
2020,07,23,10,16,16.90
2020,07,23,10,17,16.90
2020,07,23,10,18,16.90
2020,07,23,10,19,16.90
2020,07,23,10,20,17.00
2020,07,23,10,21,17.00
2020,07,23,10,22,17.00
2020,07,23,10,23,17.10
2020,07,23,10,24,17.10
2020,07,23,10,25,17.10
2020,07,23,10,26,17.20
2020,07,23,10,27,17.20
2020,07,23,10,28,17.30
2020,07,23,10,29,17.30
2020,07,23,10,30,17.40
2020,07,23,10,31,17.40
2020,07,23,10,32,17.50
2020,07,23,10,33,17.60
2020,07,23,10,34,17.60
2020,07,23,10,35,17.70
2020,07,23,10,36,17.70
2020,07,23,10,37,17.80
2020,07,23,10,38,17.80
2020,07,23,10,39,17.90
2020,07,23,10,40,18.00
2020,07,23,10,41,18.10
2020,07,23,10,42,18.10
2020,07,23,10,43,18.20
2020,07,23,10,44,18.20
2020,07,23,10,45,18.20
2020,07,23,10,46,18.20
2020,07,23,10,47,18.20
2020,07,23,10,48,18.30
2020,07,23,10,49,18.30
2020,07,23,10,50,18.30
2020,07,23,10,51,18.30
2020,07,23,10,52,18.30
2020,07,23,10,53,18.30
2020,07,23,10,54,18.20
2020,07,23,10,55,18.20
2020,07,23,10,56,18.20
2020,07,23,10,57,18.10
2020,07,23,10,58,18.10
2020,07,23,10,59,18.10
2020,07,23,11,00,18.00
2020,07,23,11,01,17.90
2020,07,23,11,02,17.90
2020,07,23,11,03,17.80
2020,07,23,11,04,17.80
2020,07,23,11,05,17.80
2020,07,23,11,06,17.80
2020,07,23,11,07,17.80
2020,07,23,11,08,17.80
2020,07,23,11,09,17.80
2020,07,23,11,10,17.80
2020,07,23,11,11,17.70
2020,07,23,11,12,17.70
2020,07,23,11,13,17.70
2020,07,23,11,14,17.70
2020,07,23,11,15,17.70
2020,07,23,11,16,17.70
2020,07,23,11,17,17.70
2020,07,23,11,18,17.70
2020,07,23,11,19,17.70
2020,07,23,11,20,17.60
2020,07,23,11,21,17.60
2020,07,23,11,22,17.50
2020,07,23,11,23,17.50
2020,07,23,11,24,17.40
2020,07,23,11,25,17.40
2020,07,23,11,26,17.30
2020,07,23,11,27,17.30
2020,07,23,11,28,17.30
2020,07,23,11,29,17.30
2020,07,23,11,30,17.20
2020,07,23,11,31,17.20
2020,07,23,11,32,17.20
2020,07,23,11,33,17.10
2020,07,23,11,34,17.10
2020,07,23,11,35,17.10
2020,07,23,11,36,17.00
2020,07,23,11,37,17.00
2020,07,23,11,38,17.00
2020,07,23,11,39,17.10
2020,07,23,11,40,17.10
2020,07,23,11,41,17.10
2020,07,23,11,42,17.10
2020,07,23,11,43,17.10
2020,07,23,11,44,17.10
2020,07,23,11,45,17.20
2020,07,23,11,46,17.20
2020,07,23,11,47,17.20
2020,07,23,11,48,17.20
2020,07,23,11,49,17.20
2020,07,23,11,50,17.30
2020,07,23,11,51,17.30
2020,07,23,11,52,17.30
2020,07,23,11,53,17.30
2020,07,23,11,54,17.40
2020,07,23,11,55,17.40
2020,07,23,11,56,17.40
2020,07,23,11,57,17.50
2020,07,23,11,58,17.50
2020,07,23,11,59,17.60
2020,07,23,12,00,17.60
2020,07,23,12,01,17.60
2020,07,23,12,02,17.70
2020,07,23,12,03,17.70
2020,07,23,12,04,17.70
2020,07,23,12,05,17.70
2020,07,23,12,06,17.80
2020,07,23,12,07,17.80
2020,07,23,12,08,17.80
2020,07,23,12,09,17.80
2020,07,23,12,10,17.90
2020,07,23,12,11,17.90
2020,07,23,12,12,18.00
2020,07,23,12,13,18.00
2020,07,23,12,14,18.10
2020,07,23,12,15,18.10
2020,07,23,12,16,18.10
2020,07,23,12,17,18.20
2020,07,23,12,18,18.30
2020,07,23,12,19,18.40
2020,07,23,12,20,18.50
2020,07,23,12,21,18.50
2020,07,23,12,22,18.60
2020,07,23,12,23,18.70
2020,07,23,12,24,18.70
2020,07,23,12,25,18.80
2020,07,23,12,26,18.80
2020,07,23,12,27,18.90
2020,07,23,12,28,18.90
2020,07,23,12,29,19.00
2020,07,23,12,30,19.10
2020,07,23,12,31,19.20
2020,07,23,12,32,19.30
2020,07,23,12,33,19.40
2020,07,23,12,34,19.50
2020,07,23,12,35,19.60
2020,07,23,12,36,19.70
2020,07,23,12,37,19.70
2020,07,23,12,38,19.80
2020,07,23,12,39,19.80
2020,07,23,12,40,19.80
2020,07,23,12,41,19.80
2020,07,23,12,42,19.70
2020,07,23,12,43,19.70
2020,07,23,12,44,19.70
2020,07,23,12,45,19.70
2020,07,23,12,46,19.70
2020,07,23,12,47,19.80
2020,07,23,12,48,19.90
2020,07,23,12,49,19.90
2020,07,23,12,50,20.00
2020,07,23,12,51,20.10
2020,07,23,12,52,20.10
2020,07,23,12,53,20.10
2020,07,23,12,54,20.10
2020,07,23,12,55,20.10
2020,07,23,12,56,20.10
2020,07,23,12,57,20.20
2020,07,23,12,58,20.20
2020,07,23,12,59,20.20
2020,07,23,13,00,20.30
2020,07,23,13,01,20.40
2020,07,23,13,02,20.50
2020,07,23,13,03,20.50
2020,07,23,13,04,20.60
2020,07,23,13,05,20.60
2020,07,23,13,06,20.70
2020,07,23,13,07,20.70
2020,07,23,13,08,20.80
2020,07,23,13,09,20.80
2020,07,23,13,10,20.80
2020,07,23,13,11,20.80
2020,07,23,13,12,20.80
2020,07,23,13,13,20.80
2020,07,23,13,14,20.90
2020,07,23,13,15,20.90
2020,07,23,13,16,20.90
2020,07,23,13,17,21.00
2020,07,23,13,18,21.10
2020,07,23,13,19,21.20
2020,07,23,13,20,21.30
2020,07,23,13,21,21.30
2020,07,23,13,22,21.40
2020,07,23,13,23,21.40
2020,07,23,13,24,21.40
2020,07,23,13,25,21.40
2020,07,23,13,26,21.50
2020,07,23,13,27,21.40
2020,07,23,13,28,21.50
2020,07,23,13,29,21.40
2020,07,23,13,30,21.40
2020,07,23,13,31,21.40
2020,07,23,13,32,21.40
2020,07,23,13,33,21.40
2020,07,23,13,34,21.40
2020,07,23,13,35,21.30
2020,07,23,13,36,21.30
2020,07,23,13,37,21.30
2020,07,23,13,38,21.30
2020,07,23,13,39,21.30
2020,07,23,13,40,21.30
2020,07,23,13,41,21.20
2020,07,23,13,42,21.20
2020,07,23,13,43,21.20
2020,07,23,13,44,21.20
2020,07,23,13,45,21.20
2020,07,23,13,46,21.30
2020,07,23,13,47,21.30
2020,07,23,13,48,21.30
2020,07,23,13,49,21.30
2020,07,23,13,50,21.20
2020,07,23,13,51,21.20
2020,07,23,13,52,21.20
2020,07,23,13,53,21.20
2020,07,23,13,54,21.20
2020,07,23,13,55,21.20
2020,07,23,13,56,21.20
2020,07,23,13,57,21.20
2020,07,23,13,58,21.20
2020,07,23,13,59,21.20
2020,07,23,14,00,21.20
2020,07,23,14,01,21.30
2020,07,23,14,02,21.30
2020,07,23,14,03,21.30
2020,07,23,14,04,21.30
2020,07,23,14,05,21.30
2020,07,23,14,06,21.40
2020,07,23,14,07,21.50
2020,07,23,14,08,21.60
2020,07,23,14,09,21.60
2020,07,23,14,10,21.70
2020,07,23,14,11,21.80
2020,07,23,14,12,21.90
2020,07,23,14,13,22.00
2020,07,23,14,14,22.10
2020,07,23,14,15,22.20
2020,07,23,14,16,22.20
2020,07,23,14,17,22.20
2020,07,23,14,18,22.30
2020,07,23,14,19,22.30
2020,07,23,14,20,22.30
2020,07,23,14,21,22.30
2020,07,23,14,22,22.30
2020,07,23,14,23,22.30
2020,07,23,14,24,22.30
2020,07,23,14,25,22.30
2020,07,23,14,26,22.20
2020,07,23,14,27,22.20
2020,07,23,14,28,22.20
2020,07,23,14,29,22.20
2020,07,23,14,30,22.10
2020,07,23,14,31,22.10
2020,07,23,14,32,22.10
2020,07,23,14,33,22.10
2020,07,23,14,34,22.10
2020,07,23,14,35,22.00
2020,07,23,14,36,21.90
2020,07,23,14,37,21.90
2020,07,23,14,38,21.80
2020,07,23,14,39,21.80
2020,07,23,14,40,21.80
2020,07,23,14,41,21.80
2020,07,23,14,42,21.80
2020,07,23,14,43,21.80
2020,07,23,14,44,21.80
2020,07,23,14,45,21.80
2020,07,23,14,46,21.80
2020,07,23,14,47,21.70
2020,07,23,14,48,21.70
2020,07,23,14,49,21.70
2020,07,23,14,50,21.70
2020,07,23,14,51,21.70
2020,07,23,14,52,21.80
2020,07,23,14,53,21.80
2020,07,23,14,54,21.90
2020,07,23,14,55,21.90
2020,07,23,14,56,21.90
2020,07,23,14,57,22.00
2020,07,23,14,58,22.00
2020,07,23,14,59,22.10
2020,07,23,15,00,22.00
2020,07,23,15,01,22.00
2020,07,23,15,02,22.00
2020,07,23,15,03,22.00
2020,07,23,15,04,22.00
2020,07,23,15,05,22.00
2020,07,23,15,06,22.00
2020,07,23,15,07,22.10
2020,07,23,15,08,22.00
2020,07,23,15,09,22.00
2020,07,23,15,10,22.00
2020,07,23,15,11,22.00
2020,07,23,15,12,22.00
2020,07,23,15,13,22.00
2020,07,23,15,14,22.00
2020,07,23,15,15,22.00
2020,07,23,15,16,22.00
2020,07,23,15,17,21.90
2020,07,23,15,18,21.90
2020,07,23,15,19,21.90
2020,07,23,15,20,21.90
2020,07,23,15,21,21.90
2020,07,23,15,22,21.90
2020,07,23,15,23,21.90
2020,07,23,15,24,21.90
2020,07,23,15,25,21.90
2020,07,23,15,26,21.90
2020,07,23,15,27,21.90
2020,07,23,15,28,21.80
2020,07,23,15,29,21.80
2020,07,23,15,30,21.80
2020,07,23,15,31,21.80
2020,07,23,15,32,21.80
2020,07,23,15,33,21.80
2020,07,23,15,34,21.80
2020,07,23,15,35,21.80
2020,07,23,15,36,21.80
2020,07,23,15,37,21.80
2020,07,23,15,38,21.80
2020,07,23,15,39,21.80
2020,07,23,15,40,21.80
2020,07,23,15,41,21.80
2020,07,23,15,42,21.80
2020,07,23,15,43,21.80
2020,07,23,15,44,21.80
2020,07,23,15,45,21.80
2020,07,23,15,46,21.70
2020,07,23,15,47,21.70
2020,07,23,15,48,21.70
2020,07,23,15,49,21.70
2020,07,23,15,50,21.70
2020,07,23,15,51,21.70
2020,07,23,15,52,21.70
2020,07,23,15,53,21.80
2020,07,23,15,54,21.80
2020,07,23,15,55,21.80
2020,07,23,15,56,21.80
2020,07,23,15,57,21.80
2020,07,23,15,58,21.80
2020,07,23,15,59,21.80
2020,07,23,16,00,21.70
2020,07,23,16,01,21.70
2020,07,23,16,02,21.70
2020,07,23,16,03,21.70
2020,07,23,16,04,21.70
2020,07,23,16,05,21.70
2020,07,23,16,06,21.70
2020,07,23,16,07,21.70
2020,07,23,16,08,21.70
2020,07,23,16,09,21.70
2020,07,23,16,10,21.70
2020,07,23,16,11,21.60
2020,07,23,16,12,21.60
2020,07,23,16,13,21.70
2020,07,23,16,14,21.70
2020,07,23,16,15,21.70
2020,07,23,16,16,21.70
2020,07,23,16,17,21.70
2020,07,23,16,18,21.70
2020,07,23,16,19,21.70
2020,07,23,16,20,21.80
2020,07,23,16,21,21.80
2020,07,23,16,22,21.90
2020,07,23,16,23,22.00
2020,07,23,16,24,22.00
2020,07,23,16,25,22.10
2020,07,23,16,26,22.20
2020,07,23,16,27,22.20
2020,07,23,16,28,22.20
2020,07,23,16,29,22.30
2020,07,23,16,30,22.30
2020,07,23,16,31,22.30
2020,07,23,16,32,22.30
2020,07,23,16,33,22.30
2020,07,23,16,34,22.30
2020,07,23,16,35,22.30
2020,07,23,16,36,22.30
2020,07,23,16,37,22.30
2020,07,23,16,38,22.30
2020,07,23,16,39,22.30
2020,07,23,16,40,22.30
2020,07,23,16,41,22.30
2020,07,23,16,42,22.30
2020,07,23,16,43,22.30
2020,07,23,16,44,22.40
2020,07,23,16,45,22.30
2020,07,23,16,46,22.30
2020,07,23,16,47,22.30
2020,07,23,16,48,22.30
2020,07,23,16,49,22.20
2020,07,23,16,50,22.20
2020,07,23,16,51,22.20
2020,07,23,16,52,22.10
2020,07,23,16,53,22.00
2020,07,23,16,54,21.90
2020,07,23,16,55,21.80
2020,07,23,16,56,21.60
2020,07,23,16,57,21.50
2020,07,23,16,58,21.40
2020,07,23,16,59,21.30
2020,07,23,17,00,21.20
2020,07,23,17,01,21.10
2020,07,23,17,02,21.00
2020,07,23,17,03,20.90
2020,07,23,17,04,20.90
2020,07,23,17,05,20.80
2020,07,23,17,06,20.80
2020,07,23,17,07,20.70
2020,07,23,17,08,20.60
2020,07,23,17,09,20.60
2020,07,23,17,10,20.50
2020,07,23,17,11,20.50
2020,07,23,17,12,20.50
2020,07,23,17,13,20.40
2020,07,23,17,14,20.30
2020,07,23,17,15,20.30
2020,07,23,17,16,20.30
2020,07,23,17,17,20.30
2020,07,23,17,18,20.30
2020,07,23,17,19,20.30